sat.trackr.live / text

‹ back to catalog

STARLINK-37664

NORAD 69044 · 2026-101V

PAYLOAD ACTIVE UNKNOWN

§ Identity

Operator
Country
US
Launch date
2026-05-06
Launch site
AFWTR
Launch vehicle
Mass (kg)
RCS (m²)

Purposes: comms

External: N2YO · Heavens-Above · Gunter

§ Orbital elements

Epoch: 2026-05-25T04:00:03.998880Z

Period
92.20 min
Inclination
97.2858°
Eccentricity
0.0001599
Mean motion
15.61816131 rev/d
Perigee alt
381.3 km
Apogee alt
383.5 km
Semi-major
6,760.5 km
B*
-2.5154e-2
RAAN
359.9206°
Arg perigee
83.2585°
Mean anomaly
22.5271°
Rev number
423

§ Raw data

STARLINK-376641 69044U 26101V   26145.16671295 -.01922618  00000+0 -25154-1 0  99962 69044  97.2858 359.9206 0001599  83.2585  22.5271 15.61816131  4234

JSON: /api/v1/satellites/69044 · /tle

For live sub-satellite position, see the globe view (requires WebGL).

§ Visibility from observer

Set your observer location to see the next 7 days of passes ≥ 10°. The values pass through the URL so the page stays shareable.

No JS? Fill the form by hand. The geolocation button needs JavaScript.